Location: Charbonni�res
(45.9952°N, 2.9982°E)
Time: 18:08:49
(UTC+00:00)

SL-4 R/B - Pass Details

Date: 29 November 2020
Orbit: 428 x 664 km, 51.6° (Epoch: 22 January)

Event Time Altitude Azimuth Distance (km) Brightness Sun altitude
Exits shadow 04:15:46 20° 49° (NE) 1,206 4.2 -29.1°
Drops below altitude 10° 04:17:08 10° 59° (ENE) 1,697 5.2 -28.9°
Sets 04:19:17 0° 66° (ENE) 2,541 6.4 -28.5°
